Elkins, WV

5:23 AM EDT on July 21, 2017 (GMT -0400)
Elkins-Randolph County

Weather History for KEKN - August, 2013

Change the Weather History Date:

Monday, August 12, 2013

  Actual Average Record
Temperature  
Mean Temperature 73 °F 70 °F  
Max Temperature 83 °F 81 °F 91 °F (1926)
Min Temperature 62 °F 59 °F 37 °F (1930)
Degree Days  
Heating Degree Days 0 0  
Month to date heating degree days 3 0  
Since 1 June heating degree days 19 67  
Since 1 July heating degree days 7 12  
Cooling Degree Days 8 5  
Month to date cooling degree days 66 60  
Year to date cooling degree days 396 341  
Since 1 June cooling degree days 371 318  
Growing Degree Days 22 (Base 50)    
Moisture  
Dew Point 63 °F    
Average Humidity 78    
Maximum Humidity 100    
Minimum Humidity 55    
Precipitation  
Precipitation T in 0.12 in 2.35 in (1941)
Month to date precipitation 1.89 1.60  
Year to date precipitation 26.77 30.57  
Snow  
Snow 0.00 in - - ()
Month to date snowfall 0.0  
Since 1 September snowfall 77.5  
Snow Depth 0.00 in    
Sea Level Pressure  
Sea Level Pressure 30.09 in    
Wind  
Wind Speed 2 mph (WNW)    
Max Wind Speed 13 mph    
Max Gust Speed 16 mph    
Visibility 7 miles    
Events      
T = Trace of Precipitation, MM = Missing Value Source: NWS Daily Summary

Daily Weather History Graph

Daily Weather History Graph

Search for Another Location

Airport or City:

Trip Planner

Search our weather history database for the weather conditions in past years. The results will help you decide how hot, cold, wet, or windy it might be!

Date:

Astronomy

Aug. 12, 2013 Rise Set
Actual Time 6:30 AM EDT 8:17 PM EDT
Civil Twilight 6:01 AM EDT 8:46 PM EDT
Nautical Twilight 5:26 AM EDT 9:20 PM EDT
Astronomical Twilight 4:49 AM EDT 9:57 PM EDT
Moon 12:15 PM EDT (8/12) 11:13 PM EDT (8/12)
Length of Visible Light 14h 44m
Length of Day
13h 47m
Waxing Crescent, 31% of the Moon is Illuminated
Aug 12
Waxing Crescent
Aug 14
First Quarter
Aug 20
Full
Aug 28
Last Quarter
Sep 5
New

Hourly Weather History & Observations

Time (EDT) Temp. Heat Index Dew Point Humidity Pressure Visibility Wind Dir Wind Speed Gust Speed Precip Events Conditions
12:51 AM 64.9 °F - 63.0 °F 93% 30.10 in 9.0 mi Calm Calm - N/A   Scattered Clouds
1:30 AM 66.2 °F - 62.6 °F 88% 30.15 in 9.0 mi Calm Calm - N/A   Mostly Cloudy
1:51 AM 66.0 °F - 64.0 °F 93% 30.11 in 10.0 mi Calm Calm - N/A   Mostly Cloudy
2:08 AM 64.4 °F - 62.6 °F 94% 30.14 in 9.0 mi Calm Calm - N/A   Scattered Clouds
2:51 AM 63.0 °F - 61.0 °F 93% 30.11 in 7.0 mi Calm Calm - N/A   Clear
3:06 AM 64.4 °F - 62.6 °F 94% 30.13 in 2.5 mi Calm Calm - N/A   Scattered Clouds
3:10 AM 64.4 °F - 62.6 °F 94% 30.13 in 1.5 mi Calm Calm - N/A   Mostly Cloudy
3:23 AM 64.4 °F - 62.6 °F 94% 30.13 in 0.8 mi Calm Calm - N/A   Mist
3:51 AM 63.0 °F - 62.1 °F 97% 30.10 in 0.8 mi Calm Calm - N/A   Mist
4:11 AM 62.6 °F - 60.8 °F 94% 30.14 in 1.0 mi Calm Calm - N/A   Mist
4:51 AM 63.0 °F - 61.0 °F 93% 30.11 in 1.0 mi Calm Calm - N/A   Mist
5:05 AM 62.6 °F - 62.6 °F 100% 30.14 in 0.8 mi Calm Calm - N/A   Mist
5:42 AM 62.6 °F - 62.6 °F 100% 30.14 in 1.0 mi Calm Calm - N/A   Overcast
5:51 AM 63.0 °F - 61.0 °F 93% 30.11 in 1.8 mi Calm Calm - N/A   Overcast
5:59 AM 62.6 °F - 60.8 °F 94% 30.14 in 1.8 mi Calm Calm - N/A   Overcast
6:07 AM 62.6 °F - 60.8 °F 94% 30.14 in 2.5 mi Calm Calm - N/A   Overcast
6:27 AM 62.6 °F - 62.6 °F 100% 30.14 in 5.0 mi Calm Calm - N/A   Overcast
6:43 AM 62.6 °F - 62.6 °F 100% 30.14 in 7.0 mi Calm Calm - N/A   Overcast
6:51 AM 64.0 °F - 62.1 °F 93% 30.12 in 6.0 mi Calm Calm - N/A   Overcast
7:51 AM 64.9 °F - 64.0 °F 97% 30.11 in 9.0 mi Calm Calm - N/A   Overcast
8:38 AM 68.0 °F - 64.4 °F 88% 30.14 in 10.0 mi Calm Calm - N/A   Mostly Cloudy
8:51 AM 69.1 °F - 64.9 °F 87% 30.12 in 10.0 mi Calm Calm - N/A   Mostly Cloudy
9:14 AM 69.8 °F - 64.4 °F 83% 30.14 in 10.0 mi Calm Calm - N/A   Overcast
9:31 AM 69.8 °F - 64.4 °F 83% 30.14 in 10.0 mi Calm Calm - N/A   Mostly Cloudy
9:51 AM 71.1 °F - 64.9 °F 81% 30.12 in 10.0 mi Calm Calm - N/A   Mostly Cloudy
10:51 AM 77.0 °F - 66.0 °F 69% 30.11 in 10.0 mi Calm Calm - 0.00 in   Partly Cloudy
11:51 AM 79.0 °F - 64.9 °F 62% 30.10 in 10.0 mi NW 6.9 mph - N/A   Clear
12:51 PM 80.1 °F 81.7 °F 64.0 °F 58% 30.08 in 10.0 mi WNW 9.2 mph - N/A   Clear
1:51 PM 82.9 °F 84.4 °F 64.0 °F 53% 30.07 in 10.0 mi NW 8.1 mph - N/A   Partly Cloudy
2:51 PM 81.0 °F 82.5 °F 64.0 °F 56% 30.06 in 10.0 mi WNW 6.9 mph - N/A   Mostly Cloudy
3:51 PM 80.1 °F 81.7 °F 64.0 °F 58% 30.04 in 10.0 mi WNW 5.8 mph - N/A   Mostly Cloudy
4:51 PM 81.0 °F 82.5 °F 64.0 °F 56% 30.02 in 10.0 mi West 4.6 mph - N/A   Clear
5:51 PM 78.1 °F - 64.0 °F 62% 30.02 in 10.0 mi Variable 3.5 mph - N/A   Clear
6:51 PM 77.0 °F - 63.0 °F 62% 30.01 in 10.0 mi Calm Calm - N/A   Clear
7:51 PM 72.0 °F - 64.9 °F 78% 30.00 in 10.0 mi Calm Calm - N/A   Clear
8:51 PM 69.1 °F - 64.9 °F 87% 30.01 in 10.0 mi Calm Calm - N/A   Partly Cloudy
9:51 PM 69.1 °F - 64.9 °F 87% 30.01 in 10.0 mi Calm Calm - N/A   Clear
10:51 PM 68.0 °F - 64.0 °F 87% 29.98 in 10.0 mi Calm Calm - N/A   Mostly Cloudy
11:51 PM 68.0 °F - 64.0 °F 87% 29.97 in 10.0 mi Calm Calm - N/A   Overcast